Find Starlink 36575

NORAD ID: 67569 Int'l Des: 2026-016 Owner: SPXS Country: US Constellation: starlink operational
LEOCIRCULARRETROGRADE

Current View

Loading 3D Globe...

About Starlink 36575

Description loading...

Upcoming Passes

Passes for default location (London). Set your location on the main map for personalized predictions.

Altitude History

Loading altitude history...

Two-Line Element Set

1 67569U 26016J 26146.16195886 .00027963 00000-0 86499-3 0 9997
2 67569 97.2830 207.4923 0000929 103.9209 256.2137 15.33455965 18804
Epoch: May 26, 2026 • Age: 10 hours

Current Status

Altitude 468.7 km
Velocity 7.63 km/s
Sub-Earth Point -1.66°S, 67.55°W
Launch Date Jan 25, 2026
Age 0.3 years
Type internet

Technical Details

Classification Payload
Mass 575.00 kg
Dry Mass 530.00 kg
Total Mass 575.00 kg
Length 0.30 m
Diameter 4.10 m
Span 29.00 m
Shape Box + pan
Manufacturer SPXS
Bus Type Starlink V2MO
Phase Status In Orbit
Owner/State SPXS/US

Most Searched